{"data":{"norad_id":45427,"intl_designator":"2020-020D","name":"ONEWEB-0090","alt_names":[],"object_type":"PAYLOAD","status":"ACTIVE","operator":null,"country":"UK","launch_date":"2020-03-21","launch_site_code":"TYMSC","launch_vehicle":null,"mission":null,"orbit_class":"UNKNOWN","rcs_meters":null,"size_class":null,"mass_kg":null,"dimensions":null,"purposes":["comms"],"wikipedia_slug":null,"has_3d_model":false,"image_url":null,"decayed_at":null,"tle_current":{"epoch":"2026-09-20T01:11:47.471136Z","epoch_age_seconds":53657,"freshness":"FRESH","line1":"1 45427U 20020D   26263.04985499  .00000317  00000+0  85833-3 0  9993","line2":"2 45427  87.8979   2.2221 0001735 100.4742 259.6581 13.11415850315100","mean_motion":13.1141585,"eccentricity":0.0001735,"inclination_deg":87.8979,"raan_deg":2.2221,"arg_perigee_deg":100.4742,"mean_anomaly_deg":259.6581,"bstar":0.00085833,"rev_number":31510,"period_min":109.80498672484,"perigee_km":1216.369051137,"apogee_km":1219.0048020396,"semimajor_km":7595.8239265883,"source":"CELESTRAK","updated_at":"2026-09-20T09:00:44.552580Z"}}}